Total_Precipitation_Accumulation
0.00 0.00 0.00 0.00 0.00 0.00 0.00 0.00 0.00 0.03 0.05 0.11 0.11 0.17 0.12 0.21 0.62 1.23 0.95 1.36 1.67 0.62 0.52 0.41 0.11 0.03 0.05 0.08 0.08 0.06 0.05 0.04 0.07 0.09 0.21 0.33 0.37 0.54 0.52 0.39 0.39 0.71 1.13 0.96 0.69 0.63 0.77 0.64 0.48
0.00 0.00 0.00 0.00 0.00 0.00 0.00 0.00 0.02 0.10 0.37 0.43 0.30 0.29 0.32 0.81 0.88 1.45 1.35 2.27 2.44 1.36 0.89 0.86 0.59 0.10 0.04 0.03 0.03 0.03 0.05 0.06 0.05 0.04 0.13 0.36 0.42 0.36 0.35 0.49 0.57 0.86 1.16 1.31 1.04 1.24 1.63 1.17 0.80
0.00 0.00 0.00 0.00 0.00 0.00 0.00 0.00 0.01 0.06 0.26 0.37 0.14 0.14 0.29 0.58 1.03 0.81 0.98 1.40 1.53 1.15 1.18 1.05 1.11 0.88 0.33 0.16 0.07 0.05 0.09 0.06 0.06 0.07 0.15 0.26 0.28 0.41 0.47 0.90 1.09 1.37 1.29 1.52 1.45 1.38 1.41 1.06 0.98
0.00 0.00 0.00 0.00 0.00 0.00 0.00 0.01 0.16 0.18 0.12 0.07 0.19 0.26 0.33 0.47 0.73 0.80 0.61 0.87 1.21 1.13 1.26 1.46 1.45 0.98 0.60 0.61 0.25 0.08 0.09 0.04 0.05 0.14 0.32 0.31 0.89 1.03 1.18 1.68 2.46 2.56 2.23 2.27 3.22 2.79 1.80 0.91 1.06
0.00 0.00 0.00 0.00 0.00 0.01 0.02 0.03 0.12 0.12 0.42 0.43 0.15 0.37 0.53 0.60 0.41 0.55 1.02 1.11 1.78 1.83 2.55 3.31 2.97 2.41 1.11 0.99 0.78 0.34 0.18 0.09 0.11 0.29 0.72 1.03 1.75 1.51 1.15 0.95 1.02 1.25 2.19 2.22 1.87 1.73 1.71 1.14 0.30
0.00 0.00 0.00 0.00 0.00 0.03 0.07 0.19 0.34 0.31 0.73 0.52 0.46 0.66 0.66 0.78 0.65 0.57 1.09 1.91 3.18 3.36 3.45 5.11 5.72 5.44 4.24 2.67 1.90 1.54 1.36 1.02 0.78 0.55 0.59 0.59 1.03 1.23 0.75 0.43 0.34 0.25 0.31 0.41 0.40 0.33 0.21 0.22 0.09
0.00 0.00 0.00 0.00 0.01 0.01 0.04 0.19 0.36 0.22 0.62 1.20 0.49 0.62 0.44 0.40 0.60 1.08 1.65 2.31 3.87 5.85 5.87 5.27 7.53 5.17 4.08 4.31 3.30 3.33 2.38 2.16 1.90 1.39 0.82 0.43 0.42 0.59 0.33 0.27 0.20 0.15 0.13 0.18 0.26 0.19 0.15 0.08 0.06
0.00 0.00 0.00 0.00 0.01 0.02 0.06 0.29 0.38 0.15 0.19 0.25 0.33 0.59 0.76 0.39 0.54 0.91 1.65 2.10 3.74 6.58 9.36 6.76 6.75 5.25 3.52 3.46 4.01 3.25 3.43 2.81 2.04 1.61 1.32 0.47 0.53 0.46 0.50 0.32 0.25 0.15 0.09 0.11 0.13 0.21 0.24 0.28 0.26
0.00 0.00 0.00 0.01 0.02 0.05 0.17 0.40 0.32 0.13 0.09 0.16 0.27 0.46 0.62 0.50 0.30 0.76 1.07 1.50 2.10 3.69 5.27 5.84 7.31 6.11 3.64 2.52 3.43 2.96 3.65 3.19 2.04 1.59 2.08 0.83 0.41 0.43 0.38 0.29 0.17 0.16 0.11 0.11 0.17 0.38 0.35 0.30 0.26
0.00 0.00 0.00 0.00 0.05 0.22 0.30 0.46 0.19 0.16 0.38 0.38 0.96 0.58 0.91 0.64 0.33 0.58 0.98 1.00 1.73 2.10 2.40 3.33 5.35 6.94 4.40 2.98 2.11 2.21 2.95 4.64 2.34 1.57 1.78 1.45 0.60 0.51 0.35 0.29 0.28 0.30 0.28 0.33 0.60 0.62 0.48 0.31 0.16
0.00 0.00 0.00 0.01 0.04 0.10 0.07 0.07 0.02 0.03 0.05 0.31 0.50 0.44 0.52 0.61 0.60 0.68 0.97 0.90 1.27 1.36 1.46 1.48 2.50 4.26 3.75 3.13 2.60 2.25 2.43 4.18 3.52 1.69 1.25 1.59 0.71 0.70 0.54 0.47 0.52 0.50 0.47 0.58 0.62 0.68 0.72 0.64 0.40
0.00 0.00 0.00 0.00 0.03 0.04 0.00 0.05 0.02 0.02 0.05 0.08 0.15 0.28 0.46 0.59 0.58 0.71 0.95 1.13 0.86 1.21 1.18 1.14 0.97 2.10 2.11 1.86 2.21 2.07 1.43 2.06 3.79 1.92 1.46 1.23 1.21 0.75 0.51 0.32 0.36 0.34 0.31 0.38 0.41 0.58 0.60 0.48 0.46
0.00 0.00 0.00 0.03 0.01 0.00 0.00 0.00 0.07 0.06 0.09 0.27 0.17 0.60 0.69 0.64 0.59 0.72 1.22 0.83 1.11 1.11 1.16 1.07 0.86 1.17 1.69 1.79 1.87 1.57 0.93 1.27 2.74 2.32 1.69 1.08 1.30 1.08 0.74 0.52 0.28 0.21 0.24 0.29 0.24 0.29 0.31 0.27 0.29
0.00 0.00 0.00 0.00 0.00 0.00 0.01 0.00 0.01 0.18 0.30 0.68 0.58 0.86 0.95 0.61 0.62 1.09 0.61 0.36 0.47 0.70 0.58 0.60 0.77 0.72 1.07 1.58 1.29 1.41 0.95 1.01 2.01 2.45 1.76 1.19 0.90 0.93 0.55 0.44 0.41 0.45 0.42 0.29 0.25 0.27 0.24 0.36 0.59
0.00 0.00 0.00 0.00 0.00 0.00 0.02 0.08 0.16 0.07 0.06 0.19 0.41 0.35 0.41 0.30 0.21 0.29 0.23 0.13 0.21 0.49 0.45 0.46 0.50 0.63 1.06 1.36 1.11 1.06 0.94 0.80 1.26 2.05 1.78 1.78 1.05 0.87 0.63 0.45 0.35 0.33 0.40 0.56 0.61 0.49 0.35 0.29 0.35
0.00 0.00 0.01 0.09 0.00 0.00 0.00 0.13 0.28 0.06 0.08 0.09 0.10 0.09 0.19 0.29 0.21 0.29 0.15 0.10 0.08 0.38 0.31 0.31 0.54 0.83 0.95 1.11 1.04 1.13 0.94 0.83 1.21 1.66 1.67 1.84 1.72 0.83 0.80 0.61 0.34 0.29 0.48 0.73 0.88 0.64 0.33 0.29 0.30
0.00 0.00 0.00 0.00 0.00 0.00 0.00 0.01 0.07 0.06 0.04 0.06 0.04 0.01 0.05 0.35 0.53 0.24 0.14 0.10 0.07 0.12 0.17 0.51 0.82 1.19 1.41 1.32 1.28 1.78 1.60 1.33 1.19 1.53 1.52 1.18 1.73 1.17 0.76 0.66 0.41 0.41 0.36 0.51 0.84 0.83 0.69 0.46 0.29
0.00 0.00 0.00 0.00 0.00 0.00 0.00 0.00 0.03 0.04 0.02 0.01 0.01 0.00 0.01 0.02 0.07 0.03 0.03 0.03 0.08 0.13 0.12 0.68 1.07 1.36 1.46 2.16 2.03 1.86 1.36 1.31 1.21 1.38 1.33 1.15 1.31 1.49 1.06 0.78 0.61 0.61 0.69 0.59 0.57 0.74 0.74 0.75 0.65
0.00 0.00 0.00 0.00 0.00 0.00 0.00 0.00 0.02 0.04 0.03 0.13 0.01 0.00 0.00 0.00 0.00 0.01 0.02 0.05 0.08 0.12 0.31 0.81 1.22 1.53 1.22 0.84 0.67 0.93 0.85 0.81 1.07 1.36 1.12 0.84 1.04 1.20 1.42 0.95 0.64 0.61 0.68 0.74 0.95 0.92 0.82 0.55 0.77
0.00 0.00 0.00 0.00 0.00 0.00 0.00 0.00 0.01 0.02 0.02 0.05 0.02 0.01 0.00 0.00 0.01 0.02 0.04 0.10 0.14 0.27 0.38 0.41 0.37 0.54 0.23 0.16 0.25 0.56 0.64 0.75 0.87 1.10 0.88 0.78 0.98 1.24 1.28 1.21 1.08 0.71 0.70 0.80 1.22 1.26 1.23 0.74 1.05
0.00 0.00 0.00 0.00 0.00 0.00 0.00 0.00 0.00 0.01 0.03 0.02 0.03 0.01 0.00 0.00 0.00 0.02 0.09 0.13 0.15 0.15 0.17 0.06 0.06 0.27 0.23 0.13 0.24 0.50 0.84 1.02 1.19 1.44 1.29 0.92 1.09 1.10 1.33 1.09 1.34 1.21 1.21 1.05 1.21 1.43 1.23 0.83 0.97
0.01 0.00 0.00 0.00 0.01 0.02 0.00 0.02 0.02 0.00 0.01 0.01 0.01 0.01 0.01 0.01 0.01 0.01 0.01 0.02 0.02 0.02 0.03 0.02 0.07 0.14 0.20 0.26 0.33 0.43 0.68 0.73 0.84 0.89 1.14 0.95 0.93 1.08 1.23 1.31 1.46 1.46 1.39 1.38 1.27 1.46 1.38 1.32 1.02
0.03 0.00 0.00 0.00 0.00 0.01 0.01 0.01 0.01 0.00 0.00 0.00 0.00 0.01 0.00 0.01 0.01 0.00 0.01 0.02 0.01 0.04 0.04 0.10 0.13 0.16 0.15 0.23 0.41 0.35 0.47 0.63 0.75 0.91 1.17 1.33 0.98 0.81 0.84 1.13 1.29 1.44 1.41 1.35 1.42 1.40 1.51 1.48 1.63
0.00 0.00 0.00 0.00 0.00 0.00 0.01 0.01 0.01 0.01 0.01 0.01 0.00 0.00 0.00 0.02 0.01 0.01 0.02 0.02 0.03 0.12 0.17 0.16 0.16 0.19 0.21 0.29 0.39 0.41 0.36 0.36 0.38 0.67 1.04 1.71 1.70 1.16 0.95 1.03 1.09 1.24 1.36 1.25 1.48 1.57 1.45 1.70 1.80
0.00 0.00 0.03 0.16 0.05 0.02 0.05 0.06 0.02 0.01 0.01 0.05 0.01 0.01 0.00 0.01 0.01 0.02 0.02 0.06 0.10 0.22 0.25 0.22 0.21 0.22 0.32 0.39 0.44 0.44 0.49 0.43 0.42 0.41 0.57 1.05 2.11 2.17 1.71 1.31 1.31 1.44 1.67 1.86 1.83 1.88 1.84 1.66 1.69
0.01 0.03 0.14 0.24 0.11 0.11 0.09 0.03 0.01 0.00 0.00 0.00 0.01 0.00 0.00 0.00 0.01 0.01 0.05 0.11 0.17 0.45 0.41 0.33 0.24 0.21 0.24 0.28 0.39 0.40 0.34 0.35 0.32 0.39 0.44 0.48 0.75 1.40 1.66 1.50 1.25 1.63 2.15 2.25 2.51 2.43 2.26 2.30 2.23
0.08 0.09 0.07 0.17 0.12 0.14 0.04 0.01 0.02 0.01 0.01 0.00 0.01 0.01 0.02 0.03 0.03 0.08 0.18 0.26 0.31 0.40 0.36 0.30 0.25 0.17 0.19 0.22 0.21 0.29 0.42 0.39 0.40 0.56 0.44 0.60 0.56 0.82 1.17 1.49 1.35 1.22 1.54 2.04 2.37 2.32 2.26 2.31 2.23
0.03 0.04 0.12 0.28 0.40 0.22 0.08 0.08 0.13 0.06 0.06 0.13 0.13 0.12 0.13 0.13 0.15 0.35 0.47 0.40 0.39 0.42 0.36 0.35 0.30 0.27 0.24 0.16 0.17 0.20 0.34 0.38 0.40 0.54 0.38 0.50 0.57 0.81 1.20 1.50 1.85 1.86 1.48 1.48 2.06 2.17 2.09 2.00 1.77
0.16 0.15 0.16 0.21 0.21 0.31 0.23 0.15 0.19 0.16 0.21 0.32 0.43 0.46 0.33 0.26 0.37 0.56 0.90 0.80 0.53 0.42 0.35 0.38 0.50 0.45 0.40 0.28 0.27 0.29 0.49 0.49 0.53 0.55 0.59 0.60 0.80 1.05 1.30 1.66 2.17 2.71 2.42 2.06 1.88 1.89 1.84 1.69 1.56
0.16 0.34 0.64 0.93 0.66 0.44 0.44 0.18 0.11 0.10 0.16 0.33 1.10 1.12 0.68 0.51 0.79 0.87 1.21 1.60 1.11 0.76 0.55 0.34 0.42 0.40 0.58 0.74 0.61 0.57 0.71 0.70 0.70 0.87 0.89 0.99 1.17 1.28 1.55 1.87 2.29 2.61 2.88 2.70 2.41 2.06 1.85 1.83 1.59